This demonstration page uses our WeatherBlox Daily Observations layout. Learn more.

Left ArrowRight Arrow

39.92423, -83.80882

Hourly Observations for February 10, 2022

Temp ( °F °C ) Dew Point ( °F °C ) Humidity (%) Winds ( mph kmh ) Pressure ( in mb ) Visibility ( mi km ) Precip ( " mm )
12:56 am 00:56 Cloudy 37 2.8 32 0 82 82 SW 15 24 29.88 1012 10 16 0.00 0.00
1:56 am 01:56 Clear 36 2.2 32 0 86 86 SW 12 19 29.86 1011 10 16 0.00 0.00
2:56 am 02:56 Clear 36 2.2 30 -1.1 79 79 WSW 13 20 29.87 1011 10 16 0.00 0.00
3:56 am 03:56 Cloudy 36 2.2 28 -2.2 73 73 WSW 17 28 29.86 1011 10 16 0.00 0.00
4:56 am 04:56 Cloudy 35 1.7 28 -2.2 76 76 W 18 30 29.88 1012 10 16 0.00 0.00
5:56 am 05:56 Cloudy with Light Rain 35 1.7 28 -2.2 76 76 W 15 24 29.91 1013 10 16 0.00 0.00
6:56 am 06:56 Mostly Cloudy 34 1.1 27 -2.8 76 76 W 14 22 29.93 1014 10 16 0.00 0.00
7:56 am 07:56 Sunny 31 -0.6 28 -2.2 89 89 W 7 11 29.95 1014 10 16 0.00 0.00
8:56 am 08:56 Sunny 34 1.1 27 -2.8 76 76 W 13 20 29.97 1015 10 16 0.00 0.00
9:34 am 09:34 Mostly Cloudy 34 1 27 -3 75 75 W 18 30 30.00 1016 10 16 0.00 0.00
9:56 am 09:56 Cloudy 34 1.1 27 -2.8 76 76 W 15 24 29.98 1015 10 16 0.00 0.00
10:30 am 10:30 Partly Cloudy 34 1 27 -3 75 75 W 14 22 30.01 1016 10 16 0.00 0.00
10:56 am 10:56 Mostly Cloudy 35 1.7 26 -3.3 70 70 W 14 22 29.99 1016 10 16 0.00 0.00
11:56 am 11:56 Cloudy 35 1.7 27 -2.8 72 72 W 13 20 30.00 1016 10 16 0.00 0.00
12:56 pm 12:56 Cloudy 34 1.1 26 -3.3 73 73 W 17 28 29.99 1016 10 16 0.00 0.00
1:56 pm 13:56 Cloudy 34 1.1 27 -2.8 76 76 W 13 20 29.98 1015 10 16 0.00 0.00
2:56 pm 14:56 Cloudy 34 1.1 27 -2.8 76 76 W 15 24 29.97 1015 10 16 0.00 0.00
3:51 pm 15:51 Partly Cloudy 36 2 27 -3 70 70 W 16 26 29.99 1016 10 16 0.00 0.00
3:56 pm 15:56 Mostly Cloudy 35 1.7 27 -2.8 72 72 W 18 30 29.98 1015 10 16 0.00 0.00
4:10 pm 16:10 Mostly Cloudy 36 2 27 -3 70 70 W 16 26 29.99 1016 10 16 0.00 0.00
4:17 pm 16:17 Mostly Cloudy 36 2 28 -2 75 75 W 18 30 29.99 1016 10 16 0.00 0.00
4:56 pm 16:56 Sunny 35 1.7 27 -2.8 72 72 W 13 20 29.98 1015 10 16 0.00 0.00
5:56 pm 17:56 Sunny 33 0.6 26 -3.3 75 75 W 9 15 29.99 1016 10 16 0.00 0.00
6:56 pm 18:56 Clear 30 -1.1 27 -2.8 88 88 WSW 3 6 29.99 1016 10 16 0.00 0.00
7:56 pm 19:56 Clear 29 -1.7 26 -3.3 89 89 SW 3 6 29.98 1015 10 16 0.00 0.00
8:56 pm 20:56 Clear 27 -2.8 27 -2.8 100 100 WSW 5 7 29.98 1015 10 16 0.00 0.00
9:56 pm 21:56 Clear 28 -2.2 27 -2.8 96 96 SSW 5 7 29.96 1015 10 16 0.00 0.00
10:56 pm 22:56 Clear 28 -2.2 27 -2.8 96 96 SSW 3 6 29.95 1014 10 16 0.00 0.00
11:56 pm 23:56 Clear 29 -1.7 26 -3.3 89 89 S 6 9 29.92 1013 10 16 0.00 0.00

Powered by AerisWeather